Address 0xc053047d5d6bc002dbe48d0f919aecd075496980 2

 
Ad
Ad
Txn Hash Method
Block
From
To
Value [Txn Fee]
0x089f3384816973f92907073f740bf34cf20426d6d3bff503361a319c3a994936Stake219124822021-11-28 20:52:583 days 1 hr ago0xc053047d5d6bc002dbe48d0f919aecd075496980OUT 0x14d9e4bcc1791aef83170c6876629f7e60c9ba1c0 MATIC0.00326583
0xa99f0ab7f353af80d053071ffe5df2847bfc0e175acce13dbf9e29d38734536bStake219123092021-11-28 20:47:003 days 1 hr ago0xc053047d5d6bc002dbe48d0f919aecd075496980OUT 0x14d9e4bcc1791aef83170c6876629f7e60c9ba1c0 MATIC0.00326565
0xb15aa933415e6015df6c4f2b8cbb79f2409716278afde0e4e98c89b7983fbe95Redeem All219122362021-11-28 20:44:303 days 1 hr ago0xc053047d5d6bc002dbe48d0f919aecd075496980OUT 0xfb1ef64cb181fe693ce9af04be511918b7e9dd290 MATIC0.00197787
0x5bbaa638033b1e2559e26c7f6045b0055cfa98f6f0303040605fd5eb38d3552aStake218733502021-11-27 20:26:494 days 1 hr ago0xc053047d5d6bc002dbe48d0f919aecd075496980OUT 0x14d9e4bcc1791aef83170c6876629f7e60c9ba1c0 MATIC0.00326565
0x8bb8b6f79b36955ecaa85a4557a6bed806cd4fa02eda3fe7cfae4dec72e3e473Redeem All218726572021-11-27 20:00:514 days 2 hrs ago0xc053047d5d6bc002dbe48d0f919aecd075496980OUT 0xfb1ef64cb181fe693ce9af04be511918b7e9dd290 MATIC0.0033822
0xf023f9350e38984c4091d6b7433b2569fc962bf678e85904664c04610eba2295Redeem All218647392021-11-27 15:10:014 days 6 hrs ago0xc053047d5d6bc002dbe48d0f919aecd075496980OUT 0xfb1ef64cb181fe693ce9af04be511918b7e9dd290 MATIC0.0038952
0x2efbb9402a620d99ea032347d725b91b55dbe31e6f5b55da0ada41fb96e1c3a3Stake218452242021-11-27 3:17:344 days 18 hrs ago0xc053047d5d6bc002dbe48d0f919aecd075496980OUT 0x14d9e4bcc1791aef83170c6876629f7e60c9ba1c0 MATIC0.000326565
0x698b610ac4fa396b9a9675c3bd3f377d097555edeffcb8c2997612f101ac3072Redeem All218451862021-11-27 3:16:184 days 18 hrs ago0xc053047d5d6bc002dbe48d0f919aecd075496980OUT 0xfb1ef64cb181fe693ce9af04be511918b7e9dd290 MATIC0.0038952
0xf7469e5a971ee20a90924b7be6d4ab34fc2112f2fb9b0311c258b219ee081fe8Stake218421552021-11-27 1:28:484 days 20 hrs ago0xc053047d5d6bc002dbe48d0f919aecd075496980OUT 0x14d9e4bcc1791aef83170c6876629f7e60c9ba1c0 MATIC0.00326565
0x76d7bb28e896cf31a239ace6a7c0022e7673b63979b2e0db14236e26ed37feddRedeem All218421462021-11-27 1:28:304 days 20 hrs ago0xc053047d5d6bc002dbe48d0f919aecd075496980OUT 0xfb1ef64cb181fe693ce9af04be511918b7e9dd290 MATIC0.0038952
0xcf23cfc2cf4da54fdff134387f66b28410e930fd1411a2345003c9a565cb5142Stake218380412021-11-26 23:07:084 days 23 hrs ago0xc053047d5d6bc002dbe48d0f919aecd075496980OUT 0x14d9e4bcc1791aef83170c6876629f7e60c9ba1c0 MATIC0.03004398
0xc03834ce90a7fabc6de1f9a1904d28f6e19d868935a752e4a358f3fecfad3a24Redeem All218378782021-11-26 23:01:084 days 23 hrs ago0xc053047d5d6bc002dbe48d0f919aecd075496980OUT 0xfb1ef64cb181fe693ce9af04be511918b7e9dd290 MATIC0.04466496
0x366f3cddc88efa8e53e3ce226a91ca9c4f2934aeb831169742fab4ab7e08cbdaStake218281212021-11-26 16:42:155 days 5 hrs ago0xc053047d5d6bc002dbe48d0f919aecd075496980OUT 0x14d9e4bcc1791aef83170c6876629f7e60c9ba1c0 MATIC0.00544275
0x9ccf080f96a6de0e7a98cafe6c605602010636b792bc90b8da07d67d8a5454e4Redeem All218279872021-11-26 16:32:355 days 5 hrs ago0xc053047d5d6bc002dbe48d0f919aecd075496980OUT 0xfb1ef64cb181fe693ce9af04be511918b7e9dd290 MATIC0.01869696
0x367b88e41e4b7480c7faabad80bf1710e33fb3cc65cbc6716788696f76d79b12Stake218091312021-11-26 4:26:505 days 17 hrs ago0xc053047d5d6bc002dbe48d0f919aecd075496980OUT 0x14d9e4bcc1791aef83170c6876629f7e60c9ba1c0 MATIC0.00326565
0x1fbd15fc987835a0be333887720e63ff5f7efb873de90b39163e825729a2cfd4Redeem All218091212021-11-26 4:26:305 days 17 hrs ago0xc053047d5d6bc002dbe48d0f919aecd075496980OUT 0xfb1ef64cb181fe693ce9af04be511918b7e9dd290 MATIC0.0038952
0x671534be68bc26b2ad44703c473d773283c9045c418dc28397abb1e8f8120c9dStake218002462021-11-25 22:37:195 days 23 hrs ago0xc053047d5d6bc002dbe48d0f919aecd075496980OUT 0x14d9e4bcc1791aef83170c6876629f7e60c9ba1c0 MATIC0.014477715012
0x209df8e3150f377725154b3cfcb3b898d645b725b280202826cdc3f526179eceRedeem All217999642021-11-25 22:23:595 days 23 hrs ago0xc053047d5d6bc002dbe48d0f919aecd075496980OUT 0xfb1ef64cb181fe693ce9af04be511918b7e9dd290 MATIC0.0038952
0x90c84f9467ad8cbb12f0d33dc269c00ee3a842755f45eeee8662546e99760726Stake217994482021-11-25 22:06:146 days 1 min ago0xc053047d5d6bc002dbe48d0f919aecd075496980OUT 0x14d9e4bcc1791aef83170c6876629f7e60c9ba1c0 MATIC0.00326565
0x47f8e9bc8e349bd08b14e004085ee04acd443a83877fb4a4d22867132b24e395Redeem All217987022021-11-25 21:36:186 days 31 mins ago0xc053047d5d6bc002dbe48d0f919aecd075496980OUT 0xfb1ef64cb181fe693ce9af04be511918b7e9dd290 MATIC0.0038952
0x5e905b9e5be95ed65c1f1d515ae9b9a9848254f6c90840a784fbd8bad783abd8Stake217970582021-11-25 20:33:326 days 1 hr ago0xc053047d5d6bc002dbe48d0f919aecd075496980OUT 0x14d9e4bcc1791aef83170c6876629f7e60c9ba1c0 MATIC0.00326565
0x55582d10d16afff2547f84734708df03265a682598d71c62d19d39edaf566a78Redeem All217969822021-11-25 20:30:466 days 1 hr ago0xc053047d5d6bc002dbe48d0f919aecd075496980OUT 0xfb1ef64cb181fe693ce9af04be511918b7e9dd290 MATIC0.0038952
0xb6c87bfd48da35844de3668dd3f00b1e2bb154a89e42399e879a023fa25834a1Stake217931922021-11-25 18:13:186 days 3 hrs ago0xc053047d5d6bc002dbe48d0f919aecd075496980OUT 0x14d9e4bcc1791aef83170c6876629f7e60c9ba1c0 MATIC0.00326565
0x4e0a49daf3b05be9257ad41e14bc886e6b7aa62037be9ade4410eb1828b02491Redeem All217931522021-11-25 18:11:586 days 3 hrs ago0xc053047d5d6bc002dbe48d0f919aecd075496980OUT 0xfb1ef64cb181fe693ce9af04be511918b7e9dd290 MATIC0.00415488
0xc80ba0a9c107587dd30a9064ba132568607e7dad4505928d404ed8b5854703a9Stake217878542021-11-25 14:45:356 days 7 hrs ago0xc053047d5d6bc002dbe48d0f919aecd075496980OUT 0x14d9e4bcc1791aef83170c6876629f7e60c9ba1c0 MATIC0.00326565
[ Download CSV Export 
Parent Txn Hash Block From To Value
Loading

Contract Name:
0 MATIC

Compiler Version
0

Optimization Enabled:
0 MATIC

Other Settings:
-NA-
Block Transaction Gas Used Reward
Age Block Fee Address BC Fee Address Voting Power Jailed Incoming
Block Uncle Number Difficulty Gas Used Reward
Loading
Loading
Make sure to use the "Vote Down" button for any spammy posts, and the "Vote Up" for interesting conversations.